This is the latest recevied weather packets stored in our database for station/object W0VI. If no packets are shown the sender has not sent any weather packets the latest 10 day(s).
| Time | Temp. | Humidity | Pressure | Rain* | Wind** | Luminosity | Snow |
|---|---|---|---|---|---|---|---|
| 1777725192 | 5.56° C | 64% | 1019 hPa | 0 mm | - | 104 W/m² | - |
| 1777724889 | 5° C | 65% | 1019 hPa | 0 mm | - | 80 W/m² | - |
| 1777724585 | 5° C | 65% | 1018.7 hPa | 0 mm | - | 62 W/m² | - |
| 1777724283 | 4.44° C | 66% | 1018.7 hPa | 0 mm | - | 60 W/m² | - |
| 1777723981 | 4.44° C | 67% | 1018.9 hPa | 0 mm | - | 50 W/m² | - |
| 1777723678 | 3.89° C | 68% | 1018.7 hPa | 0 mm | - | 42 W/m² | - |
| 1777723374 | 3.89° C | 69% | 1018.8 hPa | 0 mm | - | 31 W/m² | - |
| 1777723072 | 3.33° C | 70% | 1018.7 hPa | 0 mm | - | 34 W/m² | - |
| 1777722769 | 3.33° C | 70% | 1018.7 hPa | 0 mm | - | 28 W/m² | - |
| 1777722464 | 3.33° C | 71% | 1018.8 hPa | 0 mm | - | 25 W/m² | - |
| 1777722162 | 2.78° C | 71% | 1018.9 hPa | 0 mm | - | 22 W/m² | - |
| 1777721859 | 2.78° C | 72% | 1018.7 hPa | 0 mm | - | 19 W/m² | - |
| 1777721556 | 2.78° C | 72% | 1019 hPa | 0 mm | - | 16 W/m² | - |
| 1777721254 | 2.78° C | 71% | 1018.6 hPa | 0 mm | - | 14 W/m² | - |
| 1777720952 | 2.78° C | 71% | 1018.8 hPa | 0 mm | - | 11 W/m² | - |
| 1777720649 | 2.78° C | 71% | 1018.8 hPa | 0 mm | - | 9 W/m² | - |
| 1777720346 | 2.78° C | 70% | 1018.6 hPa | 0 mm | - | 6 W/m² | - |
| 1777720043 | 2.78° C | 70% | 1018.7 hPa | 0 mm | - | 4 W/m² | - |
| 1777719741 | 2.78° C | 69% | 1018.8 hPa | 0 mm | - | 2 W/m² | - |
| 1777719439 | 3.33° C | 69% | 1018.6 hPa | 0 mm | - | 0 W/m² | - |
| 1777719135 | 3.33° C | 68% | 1018.7 hPa | 0 mm | - | 0 W/m² | - |
| 1777718833 | 3.33° C | 68% | 1018.7 hPa | 0 mm | - | 0 W/m² | - |
| 1777718530 | 3.33° C | 68% | 1018.6 hPa | 0 mm | - | 0 W/m² | - |
| 1777718228 | 3.33° C | 68% | 1018.5 hPa | 0 mm | - | 0 W/m² | - |
| 1777717925 | 3.33° C | 67% | 1018.6 hPa | 0 mm | - | 0 W/m² | - |
* Rain latest hour (hover to see other rain measurements)
** Current wind speed in m/s (hover to see current wind gust speed)